[[{"header":{"parameterUnit":"m.s-1","parameterCategory":1,"la1":30.2992,"la2":30.254,"lo1":-89.0895,"lo2":-89.0443,"dy":0.0025,"dx":0.0025,"nx":19,"ny":19,"refTime":"2026-04-11T21:00:00:Z","depth":0,"parameterNumber":2,"parameterNumberName":"U-component_of_WINDS"},"data":[0,0,0,-2.0883,-2.0884,-2.0932,-2.0932,-2.1011,-2.1011,0,0,0,0,0,0,0,0,0,0,0,-2.0879,-2.088,-2.0883,-2.0884,-2.0932,-2.0932,-2.101,-2.1011,0,0,0,0,0,0,0,0,0,0,0,-2.0878,-2.0879,-2.0881,-2.0884,-2.0932,-2.0932,-2.101,-2.0968,0,0,0,0,0,0,0,0,0,0,-2.0919,-2.0925,-2.0879,-2.0881,-2.0885,-2.0932,-2.0932,-2.0966,-2.0971,-2.0996,0,-2.1021,0,-2.1018,-2.1018,-2.1018,0,0,0,-2.0877,-2.0921,-2.0924,-2.0881,-2.0885,-2.0932,-2.0908,-2.0968,-2.0974,-2.1003,-2.1022,-2.1025,-2.1019,-2.1018,-2.1019,-2.1192,-2.1194,0,0,-2.0874,-2.0893,-2.0921,-2.0929,-2.0922,-2.0907,-2.091,-2.0971,-2.0994,-2.1023,-2.1026,-2.102,-2.1019,-2.102,-2.1191,-2.1193,0,0,0,-2.0872,-2.0892,-2.0893,-2.0926,-2.0933,-2.0908,-2.0912,-2.0991,-2.099,-2.1027,-2.1021,-2.102,-2.1021,-2.119,-2.1192,-2.127,0,0,0,-2.087,-2.089,-2.0892,-2.0905,-2.0932,-2.0963,-2.0931,-2.0986,-2.0992,-2.1021,-2.102,-2.1022,-2.1189,-2.1191,-2.1265,-2.1305,0,0,0,-2.0872,-2.089,-2.09,-2.0905,-2.0927,-2.0961,-2.0963,-2.0987,-2.0989,-2.1018,-2.1022,-2.1188,-2.1191,-2.1261,-2.1297,-2.1358,0,0,0,-2.0881,-2.0968,-2.0902,-2.0997,-2.0926,-2.1008,-2.0963,-2.1023,-2.1057,-2.102,-2.1189,-2.1192,-2.1259,-2.1293,-2.1354,-2.1415,-2.1442,0,0,-2.1001,-2.0983,-2.1038,-2.098,-2.1079,-2.1,-2.111,-2.1122,-2.1107,-2.1165,-2.1169,-2.1267,-2.1297,-2.1357,-2.1579,-2.16,0,0,0,-2.1083,-2.1123,-2.1144,-2.1178,-2.119,-2.1204,-2.1198,-2.1202,-2.1251,-2.1141,-2.1303,-2.132,-2.1355,-2.1384,-2.1402,-2.1432,-2.1205,-2.1204,-2.1204,-2.1283,-2.1259,-2.1349,-2.1331,-2.1364,-2.1357,-2.1382,-2.1388,-2.1353,-2.1392,-2.141,-2.1547,-2.1582,-2.1595,-2.1627,-2.1438,-2.1438,-2.1438,-2.1439,-2.146,-2.1514,-2.1467,-2.1537,-2.1512,-2.1571,-2.1567,-2.1541,-2.1593,-2.1531,-2.1561,-2.1498,-2.1619,-2.1646,-2.1444,-2.1443,-2.1442,-2.1442,-2.1442,-2.1591,-2.1614,-2.1618,-2.1665,-2.1704,-2.1682,-2.1735,-2.1708,-2.1684,-2.1713,-2.1731,-2.173,-2.1728,-2.1723,-2.1723,-2.1724,-2.1724,-2.1725,-2.1725,-2.1727,-2.1729,-2.1777,-2.1798,-2.1817,-2.1838,-2.1832,-2.185,-2.1864,-2.1841,-2.1841,-2.1805,-2.1634,-2.1594,-2.1732,-2.1731,-2.173,-2.1729,-2.1729,-2.1922,-2.1874,-2.1948,-2.1967,-2.199,-2.2032,-2.1997,-2.2036,-2.2047,-2.2074,-2.2031,-2.1908,-2.1888,-2.1873,-2.184,-2.2034,-2.2034,-2.2034,-2.2034,-2.2036,-2.2022,-2.2093,-2.2126,-2.2154,-2.2131,-2.2217,-2.2213,-2.2201,-2.2207,-2.2174,-2.2126,-2.2112,-2.2101,-2.2081,-2.205,-2.2293,-2.2293,-2.2293,-2.2156,-2.2144,-2.2222,-2.221,-2.2226,-2.2241,-2.2321,-2.2362,-2.2338,-2.2303,-2.2211,-2.2201,-2.2123,-2.2099,-2.2066,-2.2036,-2.1978,0,0]},{"header":{"parameterUnit":"m.s-1","parameterCategory":1,"la1":30.2992,"la2":30.254,"lo1":-89.0895,"lo2":-89.0443,"dy":0.0025,"dx":0.0025,"nx":19,"ny":19,"refTime":"2026-04-11T21:00:00:Z","depth":0,"parameterNumber":3,"parameterNumberName":"V-component_of_WINDS"},"data":[0,0,0,-2.2062,-2.2063,-2.2079,-2.2079,-2.211,-2.211,0,0,0,0,0,0,0,0,0,0,0,-2.2063,-2.2064,-2.2062,-2.2063,-2.2079,-2.2079,-2.211,-2.211,0,0,0,0,0,0,0,0,0,0,0,-2.2063,-2.2063,-2.2064,-2.2063,-2.2079,-2.2079,-2.211,-2.2094,0,0,0,0,0,0,0,0,0,0,-2.2076,-2.2083,-2.2063,-2.2064,-2.2063,-2.2079,-2.2079,-2.2093,-2.2095,-2.2107,0,-2.2119,0,-2.2115,-2.2113,-2.2113,0,0,0,-2.2058,-2.2082,-2.2081,-2.2064,-2.2063,-2.2079,-2.207,-2.2094,-2.2096,-2.2109,-2.2119,-2.212,-2.2116,-2.2113,-2.2114,-2.2198,-2.2199,0,0,-2.2057,-2.2069,-2.2079,-2.2082,-2.2081,-2.207,-2.2071,-2.2095,-2.2107,-2.212,-2.2121,-2.2116,-2.2114,-2.2114,-2.2197,-2.2198,0,0,0,-2.2058,-2.2069,-2.2067,-2.2081,-2.2084,-2.2071,-2.2072,-2.2106,-2.2104,-2.2121,-2.2117,-2.2114,-2.2114,-2.2197,-2.2198,-2.2241,0,0,0,-2.2057,-2.2069,-2.2067,-2.2075,-2.2083,-2.2095,-2.2082,-2.2102,-2.2105,-2.2117,-2.2114,-2.2115,-2.2196,-2.2197,-2.2238,-2.2259,0,0,0,-2.206,-2.2069,-2.2074,-2.2075,-2.2083,-2.2094,-2.2094,-2.2103,-2.2102,-2.2113,-2.2115,-2.2196,-2.2197,-2.2236,-2.2255,-2.2286,0,0,0,-2.2067,-2.2112,-2.2075,-2.2123,-2.2083,-2.2121,-2.2094,-2.2121,-2.2135,-2.2114,-2.2196,-2.2198,-2.2235,-2.2253,-2.2283,-2.2314,-2.2328,0,0,-2.213,-2.212,-2.2147,-2.2115,-2.2162,-2.2117,-2.2171,-2.2172,-2.2161,-2.2186,-2.2188,-2.2239,-2.2255,-2.2285,-2.24,-2.2411,0,0,0,-2.2171,-2.2191,-2.2201,-2.2216,-2.2218,-2.2221,-2.2213,-2.2213,-2.2234,-2.2177,-2.2257,-2.2266,-2.2284,-2.2298,-2.2307,-2.2322,-2.2204,-2.2204,-2.2204,-2.2279,-2.2263,-2.2308,-2.2294,-2.2308,-2.2299,-2.2309,-2.2308,-2.2288,-2.2307,-2.2315,-2.2386,-2.2403,-2.241,-2.2426,-2.2329,-2.2329,-2.2329,-2.2329,-2.2371,-2.2397,-2.2369,-2.2402,-2.2385,-2.2412,-2.2405,-2.2389,-2.2412,-2.2379,-2.2393,-2.236,-2.2423,-2.2435,-2.2332,-2.2332,-2.2331,-2.2331,-2.2331,-2.2441,-2.2451,-2.2451,-2.247,-2.2487,-2.247,-2.2494,-2.2477,-2.2461,-2.2475,-2.2482,-2.2481,-2.2479,-2.2479,-2.248,-2.248,-2.248,-2.248,-2.2481,-2.2514,-2.2512,-2.2534,-2.254,-2.2547,-2.2555,-2.2546,-2.2552,-2.2555,-2.2541,-2.2541,-2.2519,-2.2432,-2.2411,-2.2484,-2.2484,-2.2483,-2.2483,-2.2483,-2.2615,-2.259,-2.2624,-2.2631,-2.2636,-2.2654,-2.2632,-2.2647,-2.2649,-2.2662,-2.2636,-2.2574,-2.2562,-2.2555,-2.2537,-2.2639,-2.2639,-2.2639,-2.2639,-2.2675,-2.2667,-2.2698,-2.2711,-2.2721,-2.2705,-2.2744,-2.2737,-2.2726,-2.2727,-2.2709,-2.2684,-2.2677,-2.2669,-2.2659,-2.2643,-2.2769,-2.2769,-2.2769,-2.2737,-2.2729,-2.2766,-2.2755,-2.2758,-2.276,-2.2797,-2.2812,-2.2794,-2.2774,-2.2727,-2.2721,-2.2681,-2.2669,-2.2649,-2.2633,-2.2603,0,0]}]]